Location: Gugi
(45.4667°N, 11.1000°E)
Time: 10:07:49
(UTC+00:00)

Cosmos 2219 - Pass Details

Date: 17 November 2019
Orbit: 835 x 858 km, 71.1° (Epoch: 16 December)

Event Time Altitude Azimuth Distance (km) Brightness Sun altitude
Rises 16:08:06 0° 334° (NNW) 3,395 6.4 -4.7°
Reaches altitude 10° 16:10:33 10° 334° (NNW) 2,456 5.7 -5.1°
Maximum altitude 16:16:11 89° 61° (ENE) 842 3.2 -6.0°
Drops below altitude 10° 16:21:49 10° 155° (SSE) 2,444 5.6 -6.9°
Sets 16:24:14 0° 156° (SSE) 3,377 6.3 -7.3°
